Location: *
(35.1500°N, 76.6700°W)
Time: 07:44:35
(UTC+00:00)

Meteor 1-21 Rocket - Pass Details

Date: 13 October 2019
Orbit: 833 x 907 km, 81.2° (Epoch: 20 November)

Event Time Altitude Azimuth Distance (km) Brightness Sun altitude
Rises 23:35:47 0° 350° (N) 3,530 7.6 -13.3°
Reaches altitude 10° 23:38:16 10° 349° (N) 2,579 6.9 -13.8°
Maximum altitude 23:44:09 81° 264° (W) 903 4.4 -15.0°
Drops below altitude 10° 23:49:54 10° 177° (S) 2,519 6.6 -16.2°
Sets 23:52:18 0° 176° (S) 3,442 7.3 -16.7°
